#timestamp,LO_Frequency,Hit,StdDev 
1456790415.7,286047004.1,N
1456790435.5,286047002.9,N
1456790455.4,286047003.3,N
1456790475.2,286047002.9,N
1456790495.0,286047009.1,Y
1456790496.0,286047009.1,P
1456790515.8,286047004.7,N
1456790535.6,286047010.6,P
1456790555.4,286047008.7,N
1456790575.3,286047005.0,N
1456790595.1,286047007.2,N
1456790615.8,286047010.2,Y
1456790635.7,286046999.7,P
1456790655.5,286047002.2,N
1456790675.3,286047005.9,N
1456790695.2,286047005.5,N
1456790715.9,286047003.2,N
1456790735.7,286047001.4,N
1456790755.6,286047001.7,N
1456790775.4,286047001.7,N
1456790795.2,286047000.7,N
1456790815.1,286047001.4,N
1456790816.0,286047001.4,N
1456790835.8,286047002.8,N
1456790855.6,286047001.8,N
1456790875.4,286047001.4,N
1456790895.3,286047000.7,N
1456790915.1,286046999.8,N
1456790935.8,286047001.6,N
1456790955.7,286047004.0,N
1456790975.5,286047002.0,N
1456790995.3,286047003.9,N
1456791015.2,286047002.4,N
1456791035.9,286046998.9,N
1456791055.7,286047002.5,N
1456791075.6,286046999.9,N
1456791095.4,286046999.2,N
1456791115.2,286046998.9,N
1456791135.1,286046999.0,N
1456791136.0,286046999.0,N
1456791155.8,286047001.2,N
1456791175.6,286047000.5,N
1456791195.4,286046998.0,N
1456791215.3,286046997.8,N
1456791235.1,286046997.3,N
1456791255.8,286046999.3,N
1456791275.7,286046998.4,N
1456791295.5,286046998.5,N
1456791315.3,286046996.9,N
1456791335.2,286046998.1,N
1456791355.9,286046995.9,N
1456791375.7,286046992.5,Y
1456791395.6,286046994.1,P
1456791415.4,286046989.7,P
1456791435.2,286046987.1,P
1456791455.1,286046990.8,N
1456791456.0,286046990.8,N
1456791475.8,286046989.5,N
1456791495.6,286046989.8,N
1456791515.5,286046990.0,N
1456791535.3,286046989.6,N
1456791555.1,286046989.9,N
1456791575.9,286046991.6,N
1456791595.7,286046992.5,N
1456791615.5,286046992.6,N
1456791635.3,286046994.0,N
1456791655.2,286046997.3,N
1456791675.0,286046998.5,N
1456791675.9,286046998.5,N
1456791695.7,286046999.0,N
1456791715.6,286046997.4,N
1456791735.4,286046997.5,N
1456791755.2,286046999.1,N
1456791775.1,286046998.7,N
1456791776.0,286046998.7,N
1456791795.8,286047001.1,N
1456791815.6,286046998.9,N
1456791835.5,286046995.4,N
1456791855.3,286046997.0,N
1456791875.1,286046999.3,N
1456791895.9,286047002.7,N
1456791915.7,286046996.5,N
1456791935.5,286046998.3,N
1456791955.3,286046996.5,N
1456791975.2,286046996.5,N
1456791995.0,286046999.3,N
1456791995.9,286046999.3,N
1456792015.7,286046997.8,N
1456792035.6,286046998.5,N
1456792055.4,286046999.7,N
1456792075.2,286047000.5,N
1456792095.1,286047003.9,N
1456792096.0,286047003.9,N
1456792115.8,286047002.4,N
1456792135.6,286047001.2,N
1456792155.5,286047002.7,N
1456792175.3,286047002.4,N
1456792195.1,286046999.9,N
1456792215.9,286047001.1,N
1456792235.7,286046998.8,N
1456792255.5,286047000.5,N
1456792275.4,286047000.8,N
1456792295.2,286046998.9,N
1456792315.0,286046994.9,N
1456792315.9,286046994.9,N
1456792335.8,286046999.3,N
1456792355.6,286046999.4,N
1456792375.4,286046999.4,N
1456792395.2,286046996.5,N
1456792415.1,286046999.2,N
1456792416.0,286046999.2,N
1456792435.8,286046996.7,N
1456792455.6,286046998.3,N
1456792475.5,286046998.8,N
1456792495.3,286047000.5,N
1456792515.1,286046998.3,N
1456792535.9,286046998.9,N
1456792555.7,286046997.9,N
1456792575.5,286046995.2,N
1456792595.4,286046993.4,N
1456792615.2,286046997.0,N
1456792635.0,286046999.3,N
1456792635.9,286046999.3,N
1456792655.8,286046999.8,N
1456792675.6,286046998.7,N
1456792695.4,286046993.6,Y
1456792715.3,286046998.2,P
1456792735.1,286046999.9,N
1456792736.0,286046999.9,N
1456792755.8,286047001.5,N
1456792775.7,286047000.6,N
1456792795.5,286046998.6,N
1456792815.3,286046997.9,N
1456792835.2,286046998.6,N
1456792855.9,286046997.9,N
1456792875.7,286046996.3,Y
1456792895.6,286046991.8,P
1456792915.4,286046997.6,N
1456792935.2,286046999.1,N
1456792955.0,286046999.5,N
1456792956.0,286046999.5,N
1456792975.8,286047002.6,N
1456792995.6,286047005.7,N
1456793015.4,286047003.0,N
1456793035.3,286047004.2,N
1456793055.1,286047004.3,N
1456793075.8,286047002.8,N
1456793095.7,286047002.8,N
1456793115.5,286047002.5,N
1456793135.3,286047002.5,N
1456793155.2,286047002.8,N
1456793175.9,286046997.4,N
1456793195.7,286046997.1,N
1456793215.6,286046999.4,N
1456793235.4,286046997.2,N
1456793255.2,286046999.4,N
1456793275.0,286046999.1,N
1456793275.9,286046999.1,N
1456793295.8,286047000.9,N
1456793315.6,286047001.7,N
1456793335.4,286047002.0,N
1456793355.3,286047002.1,N
1456793375.1,286047000.1,N
1456793376.0,286047000.1,N
1456793395.8,286047000.0,N
1456793415.7,286046998.2,N
1456793435.5,286046995.6,N
1456793455.3,286046992.1,Y
1456793475.2,286046996.1,P
1456793495.9,286046993.9,N
1456793515.7,286046993.1,N
1456793535.6,286046993.1,N
1456793555.4,286046994.3,N
1456793575.2,286046996.2,N
1456793595.0,286046996.0,N
1456793596.0,286046996.0,N
1456793615.8,286046990.4,Y
1456793635.6,286046995.9,P
1456793655.5,286046995.2,P
1456793675.3,286046996.4,P
1456793695.1,286046994.7,Y
1456793715.9,286046999.3,P
1456793735.7,286046993.6,P
1456793755.5,286046994.1,N
1456793775.3,286046993.5,N
1456793795.2,286046995.0,N
1456793815.0,286046999.6,N
1456793815.9,286046999.6,N
1456793835.7,286046995.1,N
1456793855.6,286046996.4,N
1456793875.4,286046994.3,N
1456793895.2,286046993.1,Y
1456793915.1,286046993.7,P
1456793916.0,286046993.7,P
1456793935.8,286046996.8,N
1456793955.6,286047001.2,N
1456793975.5,286047002.7,N
1456793995.3,286047002.2,N
